sat.trackr.live / text

‹ back to catalog

YAOGAN-7

NORAD 36110 · 2009-069A

PAYLOAD ACTIVE UNKNOWN

§ Identity

Operator
Country
PRC
Launch date
2009-12-09
Launch site
JSC
Launch vehicle
Mass (kg)
RCS (m²)
3.33

Purposes: earth_obs

External: N2YO · Heavens-Above · Gunter

§ Orbital elements

Epoch: 2026-05-25T03:19:21.825120Z

Period
97.43 min
Inclination
98.0101°
Eccentricity
0.0025888
Mean motion
14.77982370 rev/d
Perigee alt
617.5 km
Apogee alt
653.9 km
Semi-major
7,013.8 km
B*
6.2481e-5
RAAN
31.1448°
Arg perigee
112.3159°
Mean anomaly
248.0799°
Rev number
88,622

§ Raw data

YAOGAN-71 36110U 09069A   26145.13844705  .00000400  00000+0  62481-4 0  99932 36110  98.0101  31.1448 0025888 112.3159 248.0799 14.77982370886229

JSON: /api/v1/satellites/36110 · /tle

For live sub-satellite position, see the globe view (requires WebGL).

§ Visibility from observer

Set your observer location to see the next 7 days of passes ≥ 10°. The values pass through the URL so the page stays shareable.

No JS? Fill the form by hand. The geolocation button needs JavaScript.

§ Radio — SatNOGS DB

ModeDescriptionDownlinkUplink
FM S-band telemetry 2.217 GHz

1 transmitter · refreshed weekly from db.satnogs.org